SCP
0 0 0 0 0 0 0 0 0 0 0 0 0 0 0 0 0 0 0 0 0 0 0 0 0 0 0 0 0 0 0 0 0 0 0 0 0 0 0 0 0 0 0
0 0 0 0 0 0 0 0 0 0 0 0 0 0 0 0 0 0 0 0 0 0 0 0 0 0 0 0 0 0 0 0 0 0 0 0 0 0 0 0 0 0 0
0 0 0 0 0 0 0 0 0 0 0 0 0 0 0 0 0 0 0 0 0 0 0 0 0 0 0 0 0 0 0 0 0 0 0 0 0 0 0 0 0 0 0
0 0 0 0 0 0 0 0 0 0 0 0 0 0 0 0 0 -0 -0 0 0 0 0 0 0 0 0 0 0 0 0 0 0 0 0 0 0 0 0 0 0 0 0
0 0 0 0 0 0 0 0 0 0 0 0 0 0 0 0 0 0 -0 0 0 0 0 0 0 0 0 0 0 0 0 0 0 0 0 0 0 0 0 0 0 0 0
0 0 0 0 0 0 0 0 0 0 0 0 0 0 0 0 0 0 0 0 0 0 0 0 0 0 0 0 0 0 0 0 0 0 0 0 0 0 0 0 0 0 0
0 0 0 0 0 0 0 0 0 0 0 0 0 0 0 0 0 0 0 0 0 0 0 0 0 0 0 0 0 0 0 0 0 0 0 0 0 0 0 0 0 0 0
0 0 0 0 0 0 0 0 0 0 0 0 0 0 0 0 0 0 0 0 0 0 0 0 0 0 0 0 0 0 0 0 0 0 0 0 0 0 0 0 0 0 0
0 0 0 0 0 0 0 0 0 0 0 0 0 0 0 0 0 0 0 0 0 0 0 0 0 0 0 0 0 0 0 0 0 0 0 0 0 0 0 0 0 0 0
0 0 0 0 0 0 0 0 0 0 0 0 0 0 0 0 0 0 0 0 0 0 0 0 0 0 0 0 0 0 0 0 0 0 0 0 0 0 0 0 0 0 0
0 0 0 0 0 0 0 0 0 0 0 0 0 0 0 0 0 0 0 0 0 0 0 0 0 0 0 0 0 0 0 0 0 0 0 0 0 0 0 0 0 0 0
0 0 0 0 0 0 0 0 0 0 0 0 0 0 0 0 0 0 0 0 0 0 0 0 0 0 0 0 0 0 0 0 0 0 0 0 0 0 0 0 0 0 0
0 0 0 0 0 0 0 0 0 0 0 0 0 0 0 0 0 0 0 0 0 0 0 0 0 0 0 0 0 0 0 0 0 0 0 0 0 0 0 0 0 0 0
0 0 0 0 0 0 0 0 0 0 0 0 0 0 0 0 0 0 0 0 0 0 0 0 0 0 0 0 0 0 0 0 0 0 0 0 0 0 0 0 0 0 0
0 0 0 0 0 0 0 0 0 0 0 0 0 0 0 0 0 0 0 0 0 0 0 0 0 0 0 0 0 0 0 0 0 0 0 0 0 0 0 0 0 0 0
0 0 0 0 0 0 0 0 0 0 0 0 0 0 0 0 0 0 0 0 0 0 0 0 0 0 0 0 0 0 0 0 0 0 0 0 0 0 0 0 0 0 0
0 0 0 0 0 0 0 0 0 0 0 0 0 0 0 0 0 0 0 0 0 0 0 0 0 0 0 0 0 0 0 0 0 0 0 0 0 0 0 0 0 0 0
0 0 0 0 0 0 0 0 0 0 0 0 0 0 0 0 0 0 0 0 0 0 0 0 0 0 0 0 0 0 0 0 0 0 0 0 0 0 0 0 0 0 0
0 0 0 0 0 0 0 0 0 0 0 0 0 0 0 0 0 0 0 0 0 0 0 0 0 0 0 0 0 0 0 0 0 0 0 0 0 0 0 0 0 0 0
0 0 0 0 0 0 0 0 0 0 0 0 0 0 0 0 0 0 0 0 0 0 0 0 0 0 0 0 0 0 0 0 0 0 0 0 0 0 0 0 0 0 0
0 0 0 0 0 0 0 0 0 0 0 0 0 0 0 0 0 0 0 0 0 0 0 0 0 0 0 0 0 0 0 0 0 0 0 0 0 0 0 0 0 0 0
0 0 0 0 0 0 0 0 0 0 0 0 0 0 0 0 0 0 0 0 0 0 0 0 0 0 0 0 0 0 0 0 0 0 0 0 0 0 0 0 0 0 0
0 0 0 0 0 0 0 0 0 0 0 0 0 0 0 0 0 0 0 0 0 0 0 0 0 0 0 0 0 0 0 0 0 0 0 0 0 0 0 0 0 0 0
0 0 0 0 0 0 0 0 0 0 0 0 0 0 0 0 0 0 0 0 0 0 0 0 0 0 0 0 0 0 0 0 0 0 0 0 0 0 0 0 0 0 0
0 0 0 0 0 0 0 0 0 0 0 0 0 0 0 0 0 0 0 0 0 0 0 0 0 0 0 0 0 0 0 0 0 0 0 0 0 0 0 0 0 0 0
0 0 0 0 0 0 0 0 0 0 0 0 0 0 0 0 0 0 0 0 0 0 0 0 0 0 0 0 0 0 0 0 0 0 0 0 0 0 0 0 0 0 0
Wind_Speed
3 3 2 2 2 2 2 2 2 2 2 2 2 4 4 4 4 3 2 8 9 8 9 9 9 9 8 8 8 7 7 7 7 7 7 7 7 6 6 6 6 5 5
4 3 3 2 2 2 2 2 2 2 1 1 2 3 4 4 4 4 3 4 8 8 9 9 9 9 9 8 8 8 8 7 7 7 7 6 6 6 7 6 6 6 6
4 4 3 3 2 2 2 2 2 2 2 1 2 2 2 3 4 4 4 3 3 6 8 8 9 9 9 9 9 9 8 8 7 7 7 7 7 7 6 7 7 7 6
5 4 3 3 3 3 2 2 2 2 2 2 1 1 1 2 3 4 4 3 3 3 5 8 8 8 9 9 9 8 8 8 8 8 8 7 7 7 7 7 7 7 7
6 5 4 3 4 3 3 3 2 2 2 2 2 1 1 1 2 3 4 4 4 4 3 5 7 8 9 9 9 9 8 8 9 9 9 9 8 8 8 8 8 8 8
7 5 4 4 4 3 3 3 3 2 2 2 2 1 1 0 1 2 3 3 4 5 5 4 4 5 8 9 8 9 9 9 9 9 9 9 9 9 9 9 8 9 9
7 6 4 4 4 4 4 5 3 3 2 2 2 2 2 1 1 2 2 3 4 5 5 5 4 4 3 7 8 9 9 9 9 9 8 8 8 8 8 9 9 9 9
8 7 6 5 5 4 4 4 3 3 2 2 3 2 1 2 1 1 2 3 4 3 5 5 5 5 4 3 5 8 9 10 10 9 9 9 9 9 9 9 9 9 9
8 6 7 6 6 5 5 5 5 5 3 2 1 3 3 3 2 1 1 2 3 3 4 4 5 5 5 4 4 7 9 9 10 10 9 9 9 8 9 9 10 10 10
7 7 7 7 6 5 5 5 5 3 4 3 1 1 2 3 2 1 1 1 2 4 4 4 5 5 5 5 5 7 9 9 9 10 10 9 9 9 9 9 10 10 10
6 7 7 7 6 5 6 6 5 4 3 4 3 3 2 1 1 2 1 2 1 2 3 4 4 4 5 5 5 7 9 9 9 9 9 9 9 9 9 9 10 10 10
4 6 7 6 6 5 6 6 6 6 4 4 3 3 3 3 3 3 2 2 2 2 2 3 4 4 4 5 7 8 9 9 9 9 9 9 9 9 9 9 10 10 10
4 6 6 6 6 5 6 5 5 5 5 5 5 3 3 3 3 3 3 2 2 2 2 2 3 4 4 4 5 8 9 9 9 9 10 9 9 9 9 9 10 10 10
5 6 6 6 6 6 6 5 4 5 5 5 5 4 3 3 3 3 4 3 1 1 2 3 2 4 4 4 5 7 6 9 9 9 9 9 9 9 9 9 9 9 9
5 6 7 7 7 7 7 6 4 5 5 5 5 5 3 3 3 3 3 3 4 2 3 3 2 2 3 4 5 5 6 7 9 9 9 10 10 10 10 10 10 10 10
6 7 7 7 7 7 6 6 5 4 5 4 4 5 4 3 3 3 3 3 3 4 3 3 3 2 2 3 4 5 6 7 8 9 9 10 10 10 10 10 10 10 11
6 7 7 7 7 7 6 5 5 6 6 5 5 5 5 4 3 3 3 3 3 3 4 3 2 2 2 3 2 3 4 4 5 8 9 10 10 10 10 11 11 11 12
6 6 6 6 6 6 6 7 7 7 6 6 6 5 5 4 4 3 3 4 4 4 4 4 2 2 2 2 2 3 3 3 4 6 9 9 9 10 10 11 11 12 12
6 6 6 6 6 6 7 7 7 6 6 6 6 6 5 5 5 4 4 4 3 3 3 3 3 1 2 1 1 2 2 2 4 5 6 7 9 10 11 11 11 11 11
6 5 5 5 5 5 5 6 6 5 5 5 5 5 5 5 5 5 4 4 3 3 3 3 3 2 2 2 1 2 2 2 3 3 4 5 6 8 9 9 9 10 10
5 5 5 4 4 4 4 5 5 5 5 4 4 4 4 5 5 4 4 4 4 3 3 3 3 2 2 2 2 2 3 3 4 3 3 4 4 4 5 6 8 9 9
4 4 4 4 4 3 4 6 5 4 4 4 3 3 3 3 4 5 5 5 5 4 4 3 3 3 3 3 3 2 3 3 4 2 2 4 3 4 4 4 6 8 8
4 4 3 3 3 1 3 4 5 4 3 3 3 2 2 1 2 2 2 2 3 3 4 4 4 4 4 3 3 3 4 4 5 3 2 5 3 5 5 5 8 8 8
4 3 3 3 3 2 2 3 4 3 2 2 2 2 2 1 1 2 2 1 1 1 2 3 3 4 3 3 3 3 4 4 4 3 3 4 4 5 5 5 7 9 8
4 4 3 3 3 2 3 1 3 2 2 2 2 2 2 2 2 2 2 1 0 1 1 1 0 1 2 2 1 1 1 2 4 3 2 3 3 4 5 5 5 7 8
4 4 4 4 3 3 3 2 3 2 3 2 3 3 4 3 3 3 2 1 0 1 2 2 2 3 3 3 2 1 1 2 2 3 1 2 3 3 4 3 3 4 5
Wind_Direction
159 154 149 141 137 129 132 131 130 131 131 142 157 160 165 169 169 171 184 190 185 186 185 183 182 183 182 180 179 181 182 179 176 176 177 177 176 175 176 175 171 170 172
165 164 165 167 168 162 154 151 152 140 138 148 164 172 175 175 179 176 186 199 197 193 194 193 192 191 192 191 192 192 192 192 188 187 188 190 188 192 193 192 190 189 189
171 172 175 183 185 169 153 133 132 122 136 142 158 173 175 183 185 184 190 199 205 206 203 202 200 199 199 199 203 203 200 198 194 195 198 199 199 202 202 204 203 201 200
176 176 183 192 179 161 152 146 140 131 136 142 151 172 168 187 196 193 194 200 200 210 216 213 208 206 207 208 208 208 208 205 201 201 204 207 210 210 211 213 213 211 207
182 183 189 188 168 160 162 167 140 142 151 153 163 152 166 195 207 206 205 211 207 207 213 225 223 215 218 220 219 215 213 214 210 210 212 215 217 216 216 218 220 218 214
185 181 184 179 168 164 165 160 143 125 127 142 135 97 46 269 227 224 220 219 218 216 215 222 225 228 229 229 226 223 221 221 218 218 219 221 222 221 219 220 223 223 222
186 182 183 174 174 177 175 166 144 133 116 121 98 55 9 354 249 235 227 221 225 223 216 219 219 221 230 232 230 229 228 228 226 225 224 225 226 226 224 224 225 227 228
188 188 180 178 178 168 162 166 148 134 125 137 130 113 25 341 314 243 219 219 227 225 226 224 218 218 223 224 228 231 232 232 232 228 227 228 231 230 228 229 229 229 231
188 184 184 179 177 173 176 177 167 151 149 148 150 145 152 219 284 309 254 230 225 222 231 228 224 223 221 222 231 235 235 232 234 235 232 231 232 233 233 233 233 233 235
186 184 181 178 177 175 174 179 170 159 148 159 156 128 143 155 160 280 313 274 240 230 233 232 230 225 220 219 225 231 236 236 236 237 236 235 231 233 235 237 239 238 238
186 184 180 178 179 179 178 175 165 167 163 163 164 153 132 103 126 155 246 294 283 244 231 229 232 230 223 220 225 232 232 232 233 236 238 237 234 234 236 240 244 245 245
183 184 179 179 179 180 179 179 173 173 174 165 165 162 158 160 179 170 195 236 258 272 250 232 230 230 227 223 230 229 227 229 231 234 237 240 240 239 238 241 245 248 251
186 188 181 177 177 182 179 171 171 176 176 174 176 180 179 182 164 160 165 196 242 285 295 256 234 228 227 220 230 231 230 229 229 232 235 239 240 241 242 244 248 251 255
186 177 175 178 179 178 178 171 172 180 178 183 188 181 182 192 180 174 168 161 179 282 283 267 261 231 229 223 229 226 234 230 228 232 236 239 240 241 244 245 246 249 254
173 171 175 178 180 179 175 170 177 183 177 187 191 190 193 195 190 193 181 175 170 205 250 256 256 250 232 227 227 223 230 234 231 233 236 239 241 242 243 245 246 248 250
175 171 178 181 179 177 175 174 175 180 181 189 189 191 199 199 192 192 193 192 188 191 229 246 246 265 255 241 225 224 232 236 238 238 239 241 243 243 245 246 247 249 249
177 179 181 179 179 178 175 175 183 186 191 197 199 196 206 197 193 194 189 186 190 184 216 252 248 266 260 256 252 237 239 238 245 242 244 244 244 245 247 249 250 250 250
180 180 178 177 181 178 175 181 191 193 195 203 205 200 209 199 199 195 189 195 199 196 201 231 245 253 253 257 258 260 258 250 250 250 246 245 245 247 251 252 252 252 252
176 175 172 178 182 180 183 191 194 194 199 205 202 201 206 194 205 203 197 202 205 199 199 212 239 244 263 280 273 270 270 269 266 261 250 245 247 252 254 253 252 252 252
169 169 170 176 178 179 187 193 192 191 193 200 198 201 206 201 206 205 204 206 200 197 197 210 232 241 251 263 253 265 277 264 270 274 267 262 256 254 254 253 252 251 250
159 157 159 167 171 175 190 190 188 185 185 192 194 201 208 204 205 203 200 199 192 198 202 213 229 239 246 244 248 248 264 280 272 260 269 269 266 266 263 256 253 251 252
130 139 154 163 165 181 183 179 174 173 175 181 189 198 203 207 217 214 210 194 184 192 207 213 225 236 252 251 254 251 259 275 279 251 253 274 266 268 268 261 260 255 254
122 128 132 133 131 123 138 154 163 164 170 173 179 184 193 198 200 195 198 202 211 214 205 207 229 243 254 251 250 256 250 254 262 274 260 274 267 269 270 264 254 252 253
109 109 110 117 114 91 111 145 172 169 159 162 167 172 177 185 154 162 161 160 214 243 232 219 234 254 266 270 252 262 269 271 270 262 234 267 276 274 278 269 255 251 255
111 106 100 103 100 67 64 128 155 144 129 112 100 91 104 108 67 107 134 147 74 0 26 36 1 336 339 334 294 270 287 282 286 280 224 254 279 288 284 275 269 263 264
112 106 92 84 89 72 49 78 141 122 114 103 89 78 68 74 72 84 110 123 112 335 351 359 6 5 1 4 10 284 269 277 288 288 287 269 287 304 292 280 291 294 285